Terminal Aerodrome Forecast
Issued by NWS Wilmington, NC

Home | Current Version | Previous Version | Text Only | Print | Product List | Glossary On
Versions: 1 2 3 4 5 6 7 8 9 10 11 12 13 14 15 16
000
FTUS42 KILM 301700
TAFILM
TAF
KILM 301721Z 3018/3118 10008KT P6SM SCT040
     FM310600 07003KT P6SM SCT200
     FM311300 08007KT P6SM FEW040 SCT120=

USA.gov is the U.S. government's official web portal to all federal, state and local government web resources and services.